CW0451 Weather Reports


Display with metric or nautical units.
time (UTC)temp
F
wind
direction
speed
MPH
gust
MPH
rain 1hr
in
rain 24hr
in
rain mn
in
humidity
%
barometer
mb
20260905012124 65 330 2.0 4.0 0.00 0.01 0.01 91 1008.3
20260905011104 65 330 2.0 3.0 0.00 0.01 0.01 90 1008.4
20260905010103 66 330 1.0 3.0 0.00 0.01 0.01 90 1008.5
20260905005104 66 324 1.0 4.0 0.00 0.01 0.01 89 1008.3
20260905004103 67 323 2.0 4.0 0.00 0.01 0.01 89 1008.3
20260905003104 67 322 2.0 5.0 0.00 0.01 0.01 87 1008.1
20260905002104 68 325 3.0 5.0 0.00 0.01 0.01 86 1008.0
20260905001104 68 328 4.0 5.0 0.00 0.01 0.01 85 1007.9
20260904235103 70 326 3.0 4.0 0.00 0.01 0.01 84 1007.7
20260904234104 71 332 2.0 4.0 0.00 0.01 0.01 81 1007.7
20260904233103 72 339 3.0 4.0 0.00 0.01 0.01 82 1007.6
20260904232104 73 326 3.0 4.0 0.00 0.01 0.01 78 1007.6
20260904231103 75 314 1.0 4.0 0.00 0.01 0.01 77 1007.4
20260904230104 77 346 2.0 3.0 0.00 0.01 0.01 72 1007.3
20260904225103 79 346 0.0 4.0 0.00 0.01 0.01 63 1007.3
20260904224124 80 330 2.0 5.0 0.00 0.01 0.01 61 1007.3
20260904223125 80 318 3.0 5.0 0.00 0.01 0.01 60 1007.3
20260904222103 80 328 2.0 7.0 0.00 0.01 0.01 58 1007.2
20260904221104 80 319 3.0 10.0 0.00 0.01 0.01 58 1007.1
20260904215104 81 318 4.0 10.0 0.00 0.01 0.01 55 1007.1
20260904214103 81 314 5.0 11.0 0.00 0.01 0.01 55 1007.2
20260904213104 82 320 4.0 11.0 0.00 0.01 0.01 53 1007.2
20260904212103 82 329 4.0 12.0 0.00 0.01 0.01 52 1007.1
20260904211104 83 328 7.0 11.0 0.00 0.01 0.01 52 1007.0
20260904205125 84 325 6.0 12.0 0.00 0.01 0.01 49 1007.0
20260904204125 84 322 6.0 10.0 0.00 0.01 0.01 48 1007.0
20260904203103 84 354 7.0 13.0 0.00 0.01 0.01 50 1007.0
20260904202104 84 359 5.0 12.0 0.00 0.01 0.01 51 1007.1
20260904201103 84 334 9.0 13.0 0.00 0.01 0.01 51 1007.1
20260904200125 84 311 3.0 12.0 0.00 0.01 0.01 52 1007.1
20260904195103 84 335 5.0 10.0 0.00 0.01 0.01 53 1007.0
20260904194103 83 327 5.0 9.0 0.00 0.01 0.01 56 1007.1
20260904193104 82 330 7.0 15.0 0.00 0.01 0.01 56 1007.2
20260904192104 82 315 6.0 10.0 0.00 0.01 0.01 61 1007.2
20260904191104 81 342 7.0 11.0 0.00 0.01 0.01 62 1007.3
20260904185104 83 345 7.0 11.0 0.00 0.01 0.01 56 1007.2
20260904184103 83 326 5.0 9.0 0.00 0.01 0.01 58 1007.2
20260904183104 83 1 8.0 12.0 0.00 0.01 0.01 58 1007.2
20260904182103 83 349 2.0 13.0 0.00 0.01 0.01 55 1007.3
20260904181104 84 332 7.0 16.0 0.00 0.01 0.01 56 1007.2
20260904180103 83 328 7.0 13.0 0.00 0.01 0.01 55 1007.1
20260904175103 83 324 10.0 14.0 0.00 0.01 0.01 54 1007.4
20260904173104 83 354 5.0 12.0 0.00 0.01 0.01 56 1007.5
20260904172103 82 336 5.0 15.0 0.00 0.01 0.01 60 1007.7
20260904171104 82 359 5.0 12.0 0.00 0.01 0.01 59 1007.6
20260904165104 82 334 10.0 15.0 0.00 0.01 0.01 59 1007.7
20260904164103 82 346 12.0 16.0 0.00 0.01 0.01 60 1007.9
20260904163104 81 21 3.0 13.0 0.00 0.01 0.01 62 1007.9
20260904162103 81 343 6.0 9.0 0.00 0.01 0.01 68 1007.9
20260904161104 79 352 7.0 15.0 0.00 0.01 0.01 64 1008.1
20260904160103 81 343 5.0 12.0 0.00 0.01 0.01 64 1008.1
20260904155104 81 356 8.0 15.0 0.00 0.01 0.01 64 1008.1
20260904154103 80 346 9.0 13.0 0.00 0.01 0.01 66 1008.2
20260904152103 80 11 6.0 11.0 0.00 0.01 0.01 65 1008.2
20260904151125 80 339 7.0 11.0 0.00 0.01 0.01 64 1008.2
20260904150103 80 356 5.0 13.0 0.00 0.01 0.01 67 1008.3
20260904145104 80 0 10.0 13.0 0.00 0.01 0.01 67 1008.4
20260904144103 79 5 5.0 13.0 0.00 0.01 0.01 70 1008.4
20260904143104 79 324 8.0 11.0 0.00 0.01 0.01 69 1008.4
20260904142103 79 323 5.0 10.0 0.00 0.01 0.01 74 1008.5
20260904141104 78 342 7.0 10.0 0.00 0.01 0.01 75 1008.5
20260904140104 78 331 4.0 9.0 0.00 0.01 0.01 76 1008.6
20260904135103 77 304 2.0 8.0 0.00 0.01 0.01 78 1008.7
20260904134104 77 325 4.0 8.0 0.00 0.01 0.01 79 1008.8
20260904133103 76 318 5.0 9.0 0.00 0.01 0.01 83 1008.8
20260904132104 75 315 2.0 9.0 0.00 0.01 0.01 83 1008.8
20260904131103 75 293 2.0 4.0 0.00 0.01 0.01 83 1008.9
20260904130146 74 338 2.0 4.0 0.00 0.01 0.01 87 1008.7
20260904125103 73 255 1.0 3.0 0.00 0.01 0.01 88 1008.8
20260904124104 72 289 1.0 5.0 0.00 0.01 0.01 91 1008.8
20260904123103 72 289 1.0 4.0 0.00 0.01 0.01 95 1008.9
20260904122104 71 295 1.0 4.0 0.00 0.01 0.01 96 1008.9
20260904121103 70 252 1.0 4.0 0.00 0.01 0.01 97 1008.9
20260904120104 69 243 1.0 4.0 0.00 0.01 0.01 98 1009.1
20260904115103 69 236 1.0 3.0 0.00 0.01 0.01 98 1009.1
20260904113145 66 202 2.0 4.0 0.00 0.02 0.01 97 1009.0
20260904112104 65 183 1.0 2.0 0.00 0.03 0.01 97 1009.0
20260904111103 64 196 0.0 0.0 0.00 0.03 0.01 97 1008.9
20260904110104 64 196 0.0 0.0 0.00 0.05 0.01 97 1009.0
20260904105103 64 196 0.0 1.0 0.00 0.06 0.01 97 1009.0
20260904104125 64 195 1.0 2.0 0.00 0.06 0.01 97 1008.9
20260904103103 64 196 0.0 0.0 0.00 0.06 0.01 97 1008.8
20260904102104 64 196 0.0 1.0 0.00 0.06 0.01 97 1008.8
20260904101103 64 195 1.0 2.0 0.00 0.06 0.01 97 1008.7
20260904100104 64 88 0.0 1.0 0.00 0.06 0.01 97 1008.7
20260904095125 64 88 0.0 1.0 0.00 0.07 0.00 97 1008.5
20260904094103 64 88 1.0 1.0 0.00 0.07 0.00 97 1008.5
20260904093104 64 88 0.0 0.0 0.00 0.10 0.00 97 1008.5
20260904092103 64 88 0.0 0.0 0.00 0.30 0.00 97 1008.6
20260904091104 64 88 0.0 0.0 0.00 0.32 0.00 97 1008.5
20260904090146 64 88 0.0 0.0 0.00 0.32 0.00 97 1008.6
20260904085145 64 88 0.0 0.0 0.00 0.33 0.00 97 1008.6
20260904084104 64 88 0.0 1.0 0.00 0.33 0.00 97 1008.7
20260904083103 64 88 0.0 0.0 0.00 0.35 0.00 97 1008.6
20260904082104 64 88 0.0 1.0 0.00 0.37 0.00 96 1008.6
20260904081124 64 88 0.0 3.0 0.00 0.37 0.00 97 1008.7
20260904080125 63 70 1.0 2.0 0.00 0.37 0.00 96 1008.6
20260904075104 63 75 1.0 2.0 0.00 0.37 0.00 96 1008.5
20260904074125 63 310 1.0 2.0 0.00 0.37 0.00 96 1008.7
20260904073103 63 253 0.0 1.0 0.00 0.37 0.00 96 1008.9
20260904072103 63 254 0.0 0.0 0.00 0.37 0.00 96 1009.0
20260904071103 63 254 0.0 0.0 0.00 0.37 0.00 96 1009.0
20260904070104 63 254 0.0 0.0 0.00 0.37 0.00 96 1009.0
20260904065103 63 254 0.0 0.0 0.00 0.37 0.00 96 1009.2
20260904064104 63 253 0.0 3.0 0.00 0.37 0.00 96 1009.3
20260904063103 63 253 0.0 3.0 0.00 0.37 0.00 96 1009.3
20260904062104 63 254 0.0 2.0 0.00 0.37 0.00 95 1009.3
20260904061103 64 254 0.0 0.0 0.00 0.37 0.00 95 1009.4
20260904060104 64 254 0.0 0.0 0.00 0.37 0.00 95 1009.5
20260904055103 64 254 0.0 1.0 0.00 0.37 0.00 95 1009.4
20260904054104 64 254 0.0 1.0 0.00 0.37 0.00 95 1009.6
20260904053103 65 253 0.0 1.0 0.00 0.37 0.00 95 1009.7
20260904052103 65 254 0.0 1.0 0.00 0.37 0.00 95 1009.9
20260904051104 65 254 0.0 0.0 0.00 0.37 0.00 96 1009.9
20260904050103 65 253 0.0 1.0 0.00 0.37 0.00 95 1009.9
20260904045104 66 253 0.0 1.0 0.00 0.37 0.00 95 1010.1
20260904044103 66 253 0.0 2.0 0.00 0.37 0.00 96 1010.2
20260904043104 66 254 0.0 0.0 0.00 0.37 0.00 95 1010.5
20260904042103 66 254 0.0 1.0 0.00 0.37 0.00 95 1010.5
20260904041104 66 253 0.0 2.0 0.00 0.37 0.00 95 1010.4
20260904040103 66 219 1.0 3.0 0.00 0.73 0.37 95 1010.3
20260904035104 66 212 2.0 2.0 0.00 0.37 0.37 95 1010.5
20260904034145 66 285 0.0 2.0 0.00 0.37 0.37 95 1010.5
20260904033103 67 285 1.0 3.0 0.00 0.37 0.37 95 1010.5
20260904032104 67 225 0.0 2.0 0.00 0.37 0.37 95 1010.7
20260904031103 67 186 0.0 2.0 0.00 0.37 0.37 95 1010.6
20260904030104 67 174 1.0 2.0 0.00 0.37 0.37 95 1010.5
20260904025103 67 234 0.0 2.0 0.00 0.37 0.37 95 1010.7
20260904024104 67 209 1.0 3.0 0.00 0.37 0.37 94 1010.7
20260904023103 67 82 0.0 0.0 0.00 0.37 0.37 94 1010.8
20260904022104 68 82 0.0 1.0 0.00 0.37 0.37 95 1010.9
20260904021104 68 82 0.0 0.0 0.00 0.37 0.37 94 1011.0
20260904020104 68 82 0.0 0.0 0.00 0.37 0.37 94 1011.0
20260904015103 68 82 0.0 0.0 0.00 0.37 0.37 94 1011.1
20260904014103 68 82 0.0 0.0 0.00 0.37 0.37 94 1011.2
20260904013104 69 82 0.0 1.0 0.00 0.37 0.37 94 1011.4